TIANMU-1 07

Last updated on Fri Sep 11 2026 00:02:39 GMT+0000 (Coordinated Universal Time)

1 57399U 23101A 26253.43540481 .00004803 00000+0 16458-3 0 9998 2 57399 97.2520 302.1603 0002855 154.1971 205.9413 15.30659870174687
UTC large
Height (km)
Speed (km/s)
/
Latitude / Longitude
Inclination (degrees)
Orbital Period (minutes)
Azimuth
Elevation
Range (km)
Doppler Factor

Next 0 passes for location: London (51.5072 / 0.1276)

No passes found over London.
TIANMU-1 07